(38) Leda
ephemeris date magn radius delta ra dec elong phase
Today13 Jun 202613.93.114 AU2.520 AU21h45m-11°33'116.9°16.9°
Opposition10 Aug 202612.73.071 AU2.059 AU21h15m-11°48'176.1°1.3°
(38) Leda - 2026-06-13
astro.vanbuitenen.nl


 
-1 year
-1 month
-1 day
Now
+1 day
+1 month
+1 year

The interactive orbit chart above shows the body's path through the solar system and its position at the given date. Green and blue lines are shown perpendicular to the ecliptic plane: Green if the path is above the ecliptic plane, blue if it is below. (Left-click and drag to rotate the view; Right-click and drag to move the view; Use scroll wheel to zoom in our out.)

The orbital elements of Leda are:

            e (Eccentricity)                : 0.1508913
            a (Semimajor axis)              : 2.7426246
            i (Inclination)                 : 6.95159
            Ω (Longitude of ascending node) : 295.49318
            ω (Argument of perihelion)      : 169.82711
            M (Mean anomaly)                : 209.10244
            Epoch                           : 2026 Jun 09

            L (Longitude of perihelion)     : 285.39353
            B (Latitude of perihelion)      : 1.22487
            P (Orbital period in years)     : 4.54            
        

The light curve chart below shows the estimated development of the minor planet's magnitude.


The all-sky chart below shows the path of the minor planet over the same period as the light curve. The current position is marked yellow.





The following chart shows the path of the minor planet in the next few days. The field of view is optimized for (~10x50) binoculars and finderscopes.




Ephemerides:
Date       Time       RA (2000)    DEC (2000)    delta   radius  elong  phase   PA    magn
2026-06-13 00:00 UT   21 45 29.1   -11 33 10     2.520    3.114  116.9   16.9   250   13.9 
2026-06-13 08:01 UT   21 45 30.2   -11 32 21     2.515    3.114  117.2   16.9   250   13.9 
2026-06-14 00:00 UT   21 45 32.0   -11 30 46     2.507    3.113  117.9   16.8   250   13.9 
2026-06-15 00:00 UT   21 45 33.6   -11 28 28     2.494    3.113  118.8   16.6   250   13.8 
2026-06-16 00:00 UT   21 45 34.0   -11 26 16     2.481    3.112  119.7   16.5   250   13.8 
2026-06-17 00:00 UT   21 45 33.1   -11 24 09     2.468    3.112  120.7   16.3   249   13.8 
2026-06-18 00:00 UT   21 45 30.9   -11 22 09     2.455    3.111  121.6   16.1   249   13.8 
2026-06-19 00:00 UT   21 45 27.4   -11 20 13     2.443    3.110  122.6   16.0   249   13.8 
2026-06-20 00:00 UT   21 45 22.6   -11 18 24     2.431    3.110  123.6   15.8   249   13.8 
2026-06-21 00:00 UT   21 45 16.5   -11 16 41     2.418    3.109  124.5   15.6   249   13.7 
2026-06-22 00:00 UT   21 45 09.1   -11 15 03     2.406    3.108  125.5   15.4   249   13.7 
2026-06-23 00:00 UT   21 45 00.5   -11 13 32     2.394    3.108  126.5   15.2   249   13.7 
2026-06-24 00:00 UT   21 44 50.5   -11 12 06     2.382    3.107  127.5   15.0   249   13.7 
2026-06-25 00:00 UT   21 44 39.2   -11 10 46     2.371    3.106  128.4   14.8   249   13.7 
2026-06-26 00:00 UT   21 44 26.6   -11 09 33     2.359    3.106  129.4   14.6   249   13.7 
2026-06-27 00:00 UT   21 44 12.7   -11 08 25     2.348    3.105  130.4   14.4   249   13.6 
2026-06-28 00:00 UT   21 43 57.6   -11 07 23     2.337    3.104  131.4   14.2   249   13.6 
2026-06-29 00:00 UT   21 43 41.1   -11 06 27     2.326    3.104  132.4   14.0   249   13.6 
2026-06-30 00:00 UT   21 43 23.3   -11 05 37     2.315    3.103  133.5   13.8   248   13.6 
2026-07-01 00:00 UT   21 43 04.2   -11 04 53     2.304    3.102  134.5   13.5   248   13.6 
2026-07-02 00:00 UT   21 42 43.9   -11 04 15     2.294    3.102  135.5   13.3   248   13.5 
2026-07-03 00:00 UT   21 42 22.2   -11 03 43     2.283    3.101  136.5   13.0   248   13.5 
2026-07-04 00:00 UT   21 41 59.3   -11 03 18     2.273    3.100  137.6   12.8   248   13.5 
2026-07-05 00:00 UT   21 41 35.1   -11 02 58     2.263    3.100  138.6   12.5   248   13.5 
2026-07-06 00:00 UT   21 41 09.6   -11 02 44     2.253    3.099  139.7   12.3   248   13.5 
2026-07-07 00:00 UT   21 40 42.9   -11 02 36     2.244    3.098  140.7   12.0   248   13.4 
2026-07-08 00:00 UT   21 40 15.0   -11 02 34     2.234    3.098  141.8   11.7   247   13.4 
2026-07-09 00:00 UT   21 39 45.8   -11 02 38     2.225    3.097  142.8   11.4   247   13.4 
2026-07-10 00:00 UT   21 39 15.3   -11 02 48     2.216    3.096  143.9   11.2   247   13.4 
2026-07-11 00:00 UT   21 38 43.7   -11 03 04     2.207    3.095  145.0   10.9   247   13.4 
2026-07-12 00:00 UT   21 38 10.9   -11 03 26     2.199    3.095  146.0   10.6   247   13.3 
2026-07-13 00:00 UT   21 37 36.9   -11 03 53     2.191    3.094  147.1   10.3   247   13.3 


    Terminology:
            
    delta:  distance between minor planet and earth in AU
    radius: distance between minor planet and sun in AU
    magn:   magnitude (brightness) estimate    
    ra:     right ascension in hours (24h = 360deg)
    dec:    declination in degrees
    elong:  elongation in degrees (angle sun-earth-minor planet)    
    phase:  phase angle in degrees (angle sun-minor planet-earth)        
    AU:     Astronomical Unit (mean distance between earth and sun: 149597870.7 km
    

Orbital elements provided by the MPC (Minor Planet Center).
Calculations by a modified version of AAPlus, a C# implementation of the AA+ project by PJ Naughter from the algorithms presented in the book "Astronomical Algorithms" by Jean Meeus.
NGC2000 dso catalog and star labels from VizieR as provided by the Strasbourg astronomical Data Center.
Tycho2 catalog from the ESO archive.